Location: Hackberry
(29.5783°N, 96.8797°W)
Time: 14:00:52
(UTC+00:00)

Vanguard 2 Rocket - Pass Details

Date: 15 November 2024
Orbit: 554 x 3296 km, 32.9° (Epoch: 30 November)

Event Time Altitude Azimuth Distance (km) Brightness Sun altitude
Rises 11:18:57 0° 222° (SW) 4,551 10.2 -20.4°
Reaches altitude 10° 11:21:35 10° 217° (SW) 3,872 9.8 -19.8°
Maximum altitude 11:32:08 53° 143° (SE) 2,751 9.5 -17.5°
Drops below altitude 10° 11:49:13 10° 74° (ENE) 6,045 12.0 -13.9°
Sets 11:54:31 0° 70° (ENE) 7,222 12.5 -12.8°
